Weather History for KBWP - October, 2012

Change the Weather History Date:

Saturday, October 6, 2012

  Actual Average (KFFM) Record (KFFM)
Temperature  
Mean Temperature 36 °F -  
Max Temperature 44 °F 60 °F 86 °F (1970)
Min Temperature 26 °F 37 °F 23 °F (2001)
Degree Days  
Heating Degree Days 29    
Moisture  
Dew Point 26 °F    
Average Humidity 73    
Maximum Humidity 100    
Minimum Humidity 39    
Precipitation  
Precipitation 0.00 in - - ()
Sea Level Pressure  
Sea Level Pressure 30.30 in    
Wind  
Wind Speed 10 mph (NNW)    
Max Wind Speed 16 mph    
Max Gust Speed 21 mph    
Visibility 10 miles    
Events      
Averages and records for this station are not official NWS values.
T = Trace of Precipitation, MM = Missing Value Source: NWS Daily Summary

Daily Weather History Graph

Daily Weather History Graph

Search for Another Location

Airport or City:

Trip Planner

Search our weather history database for the weather conditions in past years. The results will help you decide how hot, cold, wet, or windy it might be!

Date:

Astronomy

Oct. 06, 2012 Rise Set
Actual Time 7:32 AM CDT 6:55 PM CDT
Civil Twilight 7:02 AM CDT 7:25 PM CDT
Nautical Twilight 6:27 AM CDT 8:00 PM CDT
Astronomical Twilight 5:52 AM CDT 8:35 PM CDT
Moon 10:57 PM CDT (10/6) 1:43 PM CDT (10/6)
Length of Visible Light 12h 23m
Length of Day
11h 23m
Waning Gibbous, 65% of the Moon is Illuminated
Oct 6
Waning Gibbous
Oct 8
Last Quarter
Oct 15
New
Oct 21
First Quarter
Oct 29
Full

Hourly Weather History & Observations

Time (CDT) Temp. Windchill Dew Point Humidity Pressure Visibility Wind Dir Wind Speed Gust Speed Precip Events Conditions
12:15 AM 32.0 °F 23.0 °F 32.0 °F 100% 30.27 in 10.0 mi NNW 11.5 mph - N/A   Overcast
12:35 AM 32.0 °F 22.1 °F 32.0 °F 100% 30.27 in 10.0 mi NNW 13.8 mph - N/A   Overcast
12:55 AM 32.0 °F 23.6 °F 32.0 °F 100% 30.28 in 10.0 mi NNW 10.4 mph - N/A   Overcast
1:15 AM 32.0 °F 24.2 °F 32.0 °F 100% 30.28 in 7.0 mi NNW 9.2 mph - N/A   Overcast
1:35 AM 32.0 °F 23.0 °F 32.0 °F 100% 30.28 in 7.0 mi NNW 11.5 mph - N/A   Overcast
1:55 AM 32.0 °F 24.2 °F 32.0 °F 100% 30.28 in 10.0 mi NNW 9.2 mph - N/A   Overcast
2:15 AM 32.0 °F 23.0 °F 32.0 °F 100% 30.28 in 10.0 mi NNW 11.5 mph - N/A   Overcast
2:35 AM 32.0 °F 23.0 °F 32.0 °F 100% 30.28 in 10.0 mi NNW 11.5 mph - N/A   Overcast
2:55 AM 32.0 °F 22.5 °F 32.0 °F 100% 30.28 in 10.0 mi NNW 12.7 mph 18.4 mph N/A   Overcast
3:15 AM 32.0 °F 21.2 °F 30.2 °F 93% 30.28 in 10.0 mi NNW 16.1 mph 19.6 mph N/A   Overcast
3:35 AM 32.0 °F 23.0 °F 30.2 °F 93% 30.29 in 10.0 mi North 11.5 mph - N/A   Overcast
3:55 AM 32.0 °F 21.6 °F 30.2 °F 93% 30.29 in 10.0 mi NNW 15.0 mph 19.6 mph N/A   Overcast
4:15 AM 32.0 °F 21.6 °F 28.4 °F 87% 30.29 in 10.0 mi North 15.0 mph 19.6 mph N/A   Overcast
4:35 AM 32.0 °F 22.1 °F 28.4 °F 87% 30.30 in 10.0 mi North 13.8 mph 20.7 mph N/A   Overcast
4:55 AM 32.0 °F 22.5 °F 28.4 °F 87% 30.30 in 10.0 mi NNW 12.7 mph 19.6 mph N/A   Overcast
5:15 AM 32.0 °F 22.5 °F 28.4 °F 87% 30.30 in 10.0 mi North 12.7 mph - N/A   Overcast
5:35 AM 32.0 °F 23.0 °F 28.4 °F 87% 30.31 in 10.0 mi North 11.5 mph - N/A   Overcast
5:55 AM 32.0 °F 23.6 °F 28.4 °F 87% 30.31 in 10.0 mi North 10.4 mph - N/A   Overcast
6:15 AM 32.0 °F 23.0 °F 28.4 °F 87% 30.31 in 10.0 mi North 11.5 mph - N/A   Overcast
6:35 AM 32.0 °F 22.1 °F 28.4 °F 87% 30.32 in 10.0 mi North 13.8 mph 18.4 mph N/A   Overcast
6:55 AM 32.0 °F 23.0 °F 28.4 °F 87% 30.33 in 10.0 mi NNW 11.5 mph - N/A   Overcast
7:15 AM 32.0 °F 22.5 °F 28.4 °F 87% 30.33 in 10.0 mi North 12.7 mph - N/A   Overcast
7:35 AM 32.0 °F 23.6 °F 28.4 °F 87% 30.34 in 10.0 mi North 10.4 mph - N/A   Overcast
7:55 AM 32.0 °F 23.0 °F 28.4 °F 87% 30.34 in 10.0 mi North 11.5 mph - N/A   Overcast
8:15 AM 32.0 °F 22.1 °F 28.4 °F 87% 30.35 in 10.0 mi North 13.8 mph - N/A   Overcast
8:35 AM 32.0 °F 23.0 °F 26.6 °F 80% 30.35 in 10.0 mi North 11.5 mph 15.0 mph N/A   Overcast
8:55 AM 32.0 °F 24.8 °F 28.4 °F 87% 30.36 in 10.0 mi NNW 8.1 mph - N/A   Overcast
9:15 AM 32.0 °F 25.6 °F 28.4 °F 87% 30.37 in 10.0 mi NNW 6.9 mph - N/A   Overcast
9:35 AM 32.0 °F 24.2 °F 28.4 °F 87% 30.37 in 10.0 mi NNW 9.2 mph - N/A   Overcast
9:55 AM 32.0 °F 24.8 °F 28.4 °F 87% 30.38 in 10.0 mi NNW 8.1 mph - N/A   Overcast
10:15 AM 32.0 °F 23.0 °F 28.4 °F 87% 30.38 in 10.0 mi NNW 11.5 mph - N/A   Overcast
10:35 AM 33.8 °F 24.8 °F 28.4 °F 81% 30.39 in 10.0 mi North 12.7 mph - N/A   Overcast
10:55 AM 33.8 °F 25.8 °F 28.4 °F 81% 30.39 in 10.0 mi North 10.4 mph - N/A   Overcast
11:15 AM 33.8 °F 26.4 °F 28.4 °F 81% 30.39 in 10.0 mi NNW 9.2 mph - N/A   Overcast
11:35 AM 35.6 °F 29.2 °F 28.4 °F 75% 30.38 in 10.0 mi North 8.1 mph - N/A   Mostly Cloudy
11:55 AM 37.4 °F 31.4 °F 28.4 °F 70% 30.38 in 10.0 mi North 8.1 mph - N/A   Mostly Cloudy
12:15 PM 37.4 °F 32.1 °F 28.4 °F 70% 30.38 in 10.0 mi NNW 6.9 mph - N/A   Mostly Cloudy
12:35 PM 37.4 °F 30.3 °F 26.6 °F 65% 30.37 in 10.0 mi NNW 10.4 mph - N/A   Mostly Cloudy
12:55 PM 39.2 °F 33.6 °F 26.6 °F 61% 30.37 in 10.0 mi NNW 8.1 mph - N/A   Mostly Cloudy
1:15 PM 41.0 °F 36.4 °F 26.6 °F 57% 30.36 in 10.0 mi NNE 6.9 mph - N/A   Overcast
1:35 PM 41.0 °F 35.2 °F 26.6 °F 57% 30.35 in 10.0 mi North 9.2 mph - N/A   Mostly Cloudy
1:55 PM 41.0 °F 39.0 °F 24.8 °F 53% 30.34 in 10.0 mi NNW 3.5 mph - N/A   Mostly Cloudy
2:15 PM 41.0 °F 37.1 °F 23.0 °F 49% 30.33 in 10.0 mi North 5.8 mph - N/A   Mostly Cloudy
2:35 PM 41.0 °F 34.7 °F 23.0 °F 49% 30.33 in 10.0 mi North 10.4 mph - N/A   Mostly Cloudy
2:55 PM 41.0 °F 36.4 °F 23.0 °F 49% 30.32 in 10.0 mi North 6.9 mph - N/A   Mostly Cloudy
3:15 PM 42.8 °F 39.3 °F 23.0 °F 46% 30.31 in 10.0 mi NW 5.8 mph - N/A   Scattered Clouds
3:35 PM 42.8 °F 40.1 °F 23.0 °F 46% 30.31 in 10.0 mi NW 4.6 mph - N/A   Clear
3:55 PM 44.6 °F 42.2 °F 23.0 °F 43% 30.29 in 10.0 mi NNW 4.6 mph - N/A   Scattered Clouds
4:15 PM 44.6 °F 40.2 °F 21.2 °F 39% 30.29 in 10.0 mi NNW 8.1 mph - N/A   Clear
4:35 PM 42.8 °F 41.1 °F 21.2 °F 42% 30.28 in 10.0 mi NNW 3.5 mph - N/A   Clear
4:55 PM 44.6 °F 40.2 °F 21.2 °F 39% 30.28 in 10.0 mi NNW 8.1 mph - N/A   Clear
5:15 PM 44.6 °F 43.1 °F 21.2 °F 39% 30.27 in 10.0 mi NW 3.5 mph - N/A   Clear
5:35 PM 42.8 °F 39.3 °F 21.2 °F 42% 30.27 in 10.0 mi NW 5.8 mph - N/A   Clear
6:15 PM 42.8 °F 38.6 °F 21.2 °F 42% 30.26 in 10.0 mi NW 6.9 mph - N/A   Clear
6:35 PM 41.0 °F 36.4 °F 21.2 °F 45% 30.26 in 10.0 mi NW 6.9 mph - N/A   Clear
6:55 PM 39.2 °F 35.9 °F 21.2 °F 49% 30.26 in 10.0 mi NW 4.6 mph - N/A   Clear
7:15 PM 37.4 °F 34.9 °F 21.2 °F 52% 30.26 in 10.0 mi WNW 3.5 mph - N/A   Clear
7:35 PM 35.6 °F 32.8 °F 21.2 °F 56% 30.26 in 10.0 mi West 3.5 mph - N/A   Clear
7:55 PM 33.8 °F 30.8 °F 21.2 °F 60% 30.26 in 10.0 mi WSW 3.5 mph - N/A   Clear
8:15 PM 33.8 °F - 21.2 °F 60% 30.25 in 10.0 mi Calm Calm - N/A   Clear
8:35 PM 32.0 °F 28.7 °F 23.0 °F 69% 30.25 in 10.0 mi South 3.5 mph - N/A   Clear
8:55 PM 30.2 °F 25.4 °F 19.4 °F 64% 30.25 in 7.0 mi South 4.6 mph - N/A   Clear
9:15 PM 30.2 °F 25.4 °F 19.4 °F 64% 30.25 in 10.0 mi South 4.6 mph - N/A   Clear
9:35 PM 28.4 °F 22.2 °F 19.4 °F 69% 30.24 in 10.0 mi South 5.8 mph - N/A   Clear
9:55 PM 30.2 °F 23.4 °F 19.4 °F 64% 30.23 in 10.0 mi South 6.9 mph - N/A   Clear
10:15 PM 30.2 °F 23.4 °F 19.4 °F 64% 30.23 in 10.0 mi SSW 6.9 mph - N/A   Clear
10:35 PM 28.4 °F 21.2 °F 19.4 °F 69% 30.23 in 7.0 mi SSW 6.9 mph - N/A   Clear
10:55 PM 28.4 °F 20.4 °F 19.4 °F 69% 30.22 in 7.0 mi SSW 8.1 mph - N/A   Clear
11:15 PM 28.4 °F 21.2 °F 19.4 °F 69% 30.22 in 10.0 mi SSW 6.9 mph - N/A   Clear
11:35 PM 28.4 °F 20.4 °F 19.4 °F 69% 30.22 in 10.0 mi SSW 8.1 mph - N/A   Clear
11:55 PM 26.6 °F 18.2 °F 19.4 °F 74% 30.20 in 10.0 mi SSW 8.1 mph - N/A   Clear